EW3286 Weather Reports


Display with metric or nautical units.
time (UTC)temp
F
wind
direction
speed
MPH
gust
MPH
rain 1hr
in
rain 24hr
in
rain mn
in
humidity
%
barometer
mb
20260505003053 51 209 0.0 0.0 0.00 0.00 0.00 44 1006.0
20260505001558 51 209 0.0 0.0 0.00 0.00 0.00 44 1005.8
20260505000058 52 229 0.0 0.0 0.00 0.00 0.00 44 1005.6
20260504234543 53 191 0.0 0.0 0.00 0.00 0.00 42 1005.3
20260504233057 54 210 0.0 0.0 0.00 0.00 0.00 43 1005.1
20260504231539 55 210 0.0 0.0 0.00 0.00 0.00 41 1004.9
20260504230037 55 232 0.0 0.0 0.00 0.00 0.00 41 1004.6
20260504224541 55 188 0.0 0.0 0.00 0.00 0.00 41 1004.5
20260504223036 55 215 0.0 0.0 0.00 0.00 0.00 42 1004.5
20260504221534 55 232 0.0 0.0 0.00 0.00 0.00 39 1004.4
20260504220034 56 224 0.0 0.0 0.00 0.00 0.00 38 1004.3
20260504214531 57 221 0.0 0.0 0.00 0.00 0.00 37 1004.0
20260504213033 57 209 0.0 0.0 0.00 0.00 0.00 38 1003.7
20260504211528 58 202 0.0 0.0 0.00 0.00 0.00 36 1003.7
20260504210127 58 201 0.0 0.0 0.00 0.00 0.00 36 1003.6
20260504204526 60 198 0.0 0.0 0.00 0.00 0.00 37 1003.3
20260504203023 60 228 0.0 0.0 0.00 0.00 0.00 37 1003.3
20260504201519 61 168 0.0 0.0 0.00 0.00 0.00 36 1003.2
20260504200014 61 193 0.0 0.0 0.00 0.00 0.00 34 1003.1
20260504194511 61 217 0.0 0.0 0.00 0.00 0.00 33 1003.1
20260504193008 61 220 0.0 0.0 0.00 0.00 0.00 32 1002.8
20260504191507 63 218 0.0 0.0 0.00 0.00 0.00 34 1002.7
20260504190002 63 205 0.0 0.0 0.00 0.00 0.00 34 1002.6
20260504184600 62 258 0.0 0.0 0.00 0.00 0.00 36 1002.6
20260504183100 62 202 0.0 0.0 0.00 0.00 0.00 33 1002.5
20260504181601 62 216 0.0 0.0 0.00 0.00 0.00 34 1002.3
20260504180058 62 253 0.0 0.0 0.00 0.00 0.00 34 1002.0
20260504174556 63 252 0.0 0.0 0.00 0.00 0.00 33 1001.7
20260504173054 63 226 0.0 0.0 0.00 0.00 0.00 36 1001.8
20260504171554 62 199 0.0 0.0 0.00 0.00 0.00 36 1001.6
20260504081533 53 96 0.0 0.0 0.00 0.00 0.00 57 1000.4
20260504044607 57 113 0.0 0.0 0.00 0.00 0.00 48 1003.5
20260504043053 56 149 0.0 0.0 0.00 0.00 0.00 49 1003.6
20260504041550 55 139 0.0 0.0 0.00 0.00 0.00 51 1003.7
20260504040055 54 136 0.0 0.0 0.00 0.00 0.00 52 1004.1
20260504034545 54 124 0.0 0.0 0.00 0.00 0.00 51 1004.3
20260504033043 54 148 0.0 0.0 0.00 0.00 0.00 51 1004.6
20260504031542 55 148 0.0 0.0 0.00 0.00 0.00 50 1004.9
20260504030041 55 148 0.0 0.0 0.00 0.00 0.00 49 1005.1
20260504024539 55 148 0.0 0.0 0.00 0.00 0.00 46 1005.2
20260504023040 56 148 0.0 0.0 0.00 0.00 0.00 45 1005.2
20260504021540 57 159 0.0 0.0 0.00 0.00 0.00 43 1005.0
20260504020037 58 159 0.0 0.0 0.00 0.00 0.00 42 1005.0
20260504014541 60 153 0.0 0.0 0.00 0.00 0.00 41 1004.9
20260504013049 62 159 0.0 0.0 0.00 0.00 0.00 39 1005.1
20260504011538 65 159 0.0 0.0 0.00 0.00 0.00 35 1005.1
20260504010039 67 169 0.0 0.0 0.00 0.00 0.00 30 1005.2
20260504004534 68 182 0.0 0.0 0.00 0.00 0.00 29 1005.3